Tiempo cada hora Barrancas

Hoy, 13 Mayo, Jueves

Tiempo Temperatura Precipitaciones Viento Presión Humedad
00:00 +19°C° 0 mm 2 mps 677 mmHg 91%
01:00 +19°C° 0 mm 2 mps 676 mmHg 91%
02:00 +19°C° 0 mm 2 mps 676 mmHg 91%
03:00 +19°C° 0 mm 2 mps 676 mmHg 92%
04:00 +19°C° 0 mm 2 mps 676 mmHg 92%
05:00 +20°C° 0 mm 2 mps 676 mmHg 87%
06:00 +21°C° 0 mm 2 mps 677 mmHg 83%
07:00 +21°C° 0 mm 2 mps 677 mmHg 78%
08:00 +24°C° 0 mm 2 mps 678 mmHg 67%
09:00 +26°C° 0 mm 2 mps 678 mmHg 56%
10:00 +28°C° 0 mm 2 mps 678 mmHg 46%
11:00 +29°C° 0 mm 2 mps 678 mmHg 43%
12:00 +30°C° 0 mm 3 mps 677 mmHg 41%
13:00 +30°C° 0 mm 3 mps 677 mmHg 38%
14:00 +30°C° 0 mm 2 mps 676 mmHg 42%
15:00 +29°C° 0 mm 2 mps 676 mmHg 45%
16:00 +28°C° 0 mm 2 mps 675 mmHg 49%
17:00 +26°C° 0 mm 2 mps 676 mmHg 59%
18:00 +24°C° 0 mm 1 mps 676 mmHg 70%
19:00 +21°C° 0 mm 1 mps 676 mmHg 80%
20:00 +21°C° 0 mm 1 mps 676 mmHg 80%
21:00 +21°C° 0 mm 1 mps 677 mmHg 79%
22:00 +20°C° 0 mm 1 mps 677 mmHg 79%
23:00 +20°C° 0 mm 1 mps 677 mmHg 80%

Mañana, 14 Mayo, Viernes

Tiempo Temperatura Precipitaciones Viento Presión Humedad
00:00 +19°C° 0 mm 2 mps 676 mmHg 81%
01:00 +19°C° 0 mm 2 mps 676 mmHg 83%
02:00 +19°C° 0 mm 2 mps 676 mmHg 84%
03:00 +19°C° 0 mm 2 mps 676 mmHg 85%
04:00 +18°C° 0 mm 2 mps 676 mmHg 86%
05:00 +20°C° 0 mm 2 mps 676 mmHg 81%
06:00 +22°C° 0 mm 1 mps 677 mmHg 76%
07:00 +23°C° 0 mm 1 mps 677 mmHg 71%
08:00 +25°C° 0 mm 2 mps 678 mmHg 63%
09:00 +27°C° 0 mm 2 mps 678 mmHg 54%
10:00 +29°C° 0 mm 2 mps 678 mmHg 46%
11:00 +29°C° 0 mm 2 mps 678 mmHg 46%
12:00 +30°C° 0 mm 2 mps 677 mmHg 46%
13:00 +30°C° 0 mm 2 mps 677 mmHg 46%
14:00 +29°C° 0 mm 2 mps 676 mmHg 50%
15:00 +29°C° 0 mm 2 mps 676 mmHg 53%
16:00 +28°C° 0 mm 2 mps 675 mmHg 57%
17:00 +26°C° 0.1 mm 1 mps 675 mmHg 66%
18:00 +24°C° 0.1 mm 1 mps 676 mmHg 75%
19:00 +22°C° 0.1 mm 1 mps 676 mmHg 85%
20:00 +22°C° 0 mm 1 mps 676 mmHg 85%
21:00 +22°C° 0 mm 1 mps 676 mmHg 85%
22:00 +21°C° 0 mm 1 mps 677 mmHg 85%
23:00 +21°C° 0 mm 1 mps 676 mmHg 84%

Pasado mañana, 15 Mayo, Sábado

Tiempo Temperatura Precipitaciones Viento Presión Humedad
00:00 +22°C° 0 mm 1 mps 676 mmHg 84%
01:00 +22°C° 0 mm 1 mps 676 mmHg 83%
02:00 +21°C° 0 mm 1 mps 676 mmHg 84%
03:00 +21°C° 0 mm 1 mps 676 mmHg 86%
04:00 +21°C° 0 mm 1 mps 676 mmHg 87%
05:00 +22°C° 0 mm 1 mps 676 mmHg 84%
06:00 +22°C° 0 mm 1 mps 677 mmHg 82%
07:00 +23°C° 0 mm 1 mps 677 mmHg 79%
08:00 +25°C° 0.1 mm 1 mps 677 mmHg 72%
09:00 +26°C° 0.1 mm 1 mps 677 mmHg 66%
10:00 +28°C° 0.1 mm 2 mps 678 mmHg 60%
11:00 +28°C° 0.1 mm 2 mps 677 mmHg 58%
12:00 +29°C° 0.1 mm 2 mps 677 mmHg 56%
13:00 +29°C° 0.1 mm 2 mps 676 mmHg 55%
14:00 +28°C° 0.3 mm 2 mps 676 mmHg 60%
15:00 +27°C° 0.3 mm 2 mps 675 mmHg 66%
16:00 +27°C° 0.3 mm 1 mps 675 mmHg 71%
17:00 +25°C° 0.5 mm 1 mps 675 mmHg 78%
18:00 +23°C° 0.5 mm 1 mps 675 mmHg 86%
19:00 +22°C° 0.5 mm 1 mps 676 mmHg 93%
20:00 +21°C° 0.3 mm 1 mps 676 mmHg 93%
21:00 +21°C° 0.3 mm 1 mps 676 mmHg 94%
22:00 +21°C° 0.3 mm 1 mps 677 mmHg 94%
23:00 +21°C° 0.1 mm 1 mps 676 mmHg 94%

16 Mayo, Domingo

Tiempo Temperatura Precipitaciones Viento Presión Humedad
00:00 +21°C° 0.1 mm 1 mps 676 mmHg 93%
01:00 +21°C° 0.1 mm 1 mps 676 mmHg 93%
02:00 +21°C° 0 mm 1 mps 676 mmHg 93%
03:00 +21°C° 0 mm 1 mps 676 mmHg 93%
04:00 +21°C° 0 mm 1 mps 676 mmHg 93%
05:00 +21°C° 0.1 mm 1 mps 676 mmHg 91%
06:00 +22°C° 0.1 mm 1 mps 677 mmHg 89%
07:00 +22°C° 0.1 mm 1 mps 677 mmHg 87%
08:00 +23°C° 0.2 mm 1 mps 678 mmHg 82%
09:00 +25°C° 0.2 mm 1 mps 678 mmHg 76%
10:00 +26°C° 0.2 mm 1 mps 678 mmHg 70%
11:00 +27°C° 0.3 mm 2 mps 678 mmHg 67%
12:00 +27°C° 0.3 mm 2 mps 677 mmHg 64%
13:00 +28°C° 0.3 mm 2 mps 677 mmHg 61%
14:00 +28°C° 0.3 mm 2 mps 676 mmHg 63%
15:00 +27°C° 0.3 mm 2 mps 676 mmHg 65%
16:00 +27°C° 0.3 mm 1 mps 676 mmHg 67%
17:00 +25°C° 0.2 mm 1 mps 676 mmHg 74%
18:00 +23°C° 0.2 mm 1 mps 676 mmHg 82%
19:00 +22°C° 0.2 mm 1 mps 676 mmHg 89%
20:00 +21°C° 0.1 mm 1 mps 677 mmHg 89%
21:00 +21°C° 0.1 mm 1 mps 677 mmHg 90%
22:00 +21°C° 0.1 mm 1 mps 677 mmHg 90%
23:00 +21°C° 0 mm 1 mps 677 mmHg 89%

17 Mayo, Lunes

Tiempo Temperatura Precipitaciones Viento Presión Humedad
00:00 +21°C° 0 mm 1 mps 677 mmHg 88%
01:00 +21°C° 0 mm 1 mps 676 mmHg 87%
02:00 +21°C° 0 mm 1 mps 676 mmHg 87%
03:00 +21°C° 0 mm 1 mps 676 mmHg 87%
04:00 +21°C° 0 mm 1 mps 676 mmHg 86%
05:00 +22°C° 0 mm 1 mps 676 mmHg 83%
06:00 +22°C° 0 mm 1 mps 677 mmHg 80%
07:00 +23°C° 0 mm 1 mps 677 mmHg 77%
08:00 +24°C° 0.1 mm 1 mps 678 mmHg 72%
09:00 +25°C° 0.1 mm 1 mps 678 mmHg 67%
10:00 +26°C° 0.1 mm 2 mps 678 mmHg 62%
11:00 +27°C° 0.1 mm 2 mps 678 mmHg 61%
12:00 +27°C° 0.1 mm 2 mps 677 mmHg 60%
13:00 +28°C° 0.1 mm 2 mps 677 mmHg 59%
14:00 +27°C° 0.2 mm 2 mps 676 mmHg 63%
15:00 +27°C° 0.2 mm 1 mps 676 mmHg 67%
16:00 +26°C° 0.2 mm 1 mps 676 mmHg 71%
17:00 +24°C° 0.2 mm 1 mps 676 mmHg 78%
18:00 +23°C° 0.2 mm 1 mps 676 mmHg 85%
19:00 +22°C° 0.2 mm 1 mps 676 mmHg 92%
20:00 +21°C° 0 mm 1 mps 677 mmHg 93%
21:00 +21°C° 0 mm 1 mps 677 mmHg 93%
22:00 +21°C° 0 mm 1 mps 677 mmHg 93%
23:00 +21°C° 0.1 mm 1 mps 677 mmHg 93%

18 Mayo, Martes

Tiempo Temperatura Precipitaciones Viento Presión Humedad
00:00 +21°C° 0.1 mm 1 mps 677 mmHg 93%
01:00 +21°C° 0.1 mm 1 mps 676 mmHg 93%
02:00 +21°C° 0.2 mm 1 mps 676 mmHg 93%
03:00 +21°C° 0.2 mm 1 mps 676 mmHg 93%
04:00 +21°C° 0.2 mm 1 mps 676 mmHg 93%
05:00 +21°C° 0.7 mm 1 mps 677 mmHg 93%
06:00 +21°C° 0.7 mm 1 mps 677 mmHg 93%
07:00 +22°C° 0.7 mm 1 mps 678 mmHg 92%
08:00 +22°C° 0.4 mm 1 mps 678 mmHg 89%
09:00 +23°C° 0.4 mm 1 mps 678 mmHg 86%
10:00 +23°C° 0.4 mm 1 mps 678 mmHg 83%
11:00 +24°C° 0.1 mm 1 mps 678 mmHg 78%
12:00 +25°C° 0.1 mm 1 mps 678 mmHg 73%
13:00 +26°C° 0.1 mm 2 mps 677 mmHg 68%
14:00 +26°C° 0.4 mm 2 mps 677 mmHg 70%
15:00 +26°C° 0.4 mm 2 mps 676 mmHg 72%
16:00 +26°C° 0.4 mm 2 mps 676 mmHg 75%
17:00 +24°C° 0.5 mm 2 mps 676 mmHg 81%
18:00 +23°C° 0.5 mm 1 mps 677 mmHg 88%
19:00 +21°C° 0.5 mm 1 mps 677 mmHg 94%
20:00 +21°C° 1.9 mm 1 mps 677 mmHg 95%
21:00 +21°C° 1.9 mm 1 mps 678 mmHg 95%
22:00 +20°C° 1.9 mm 2 mps 678 mmHg 96%
23:00 +21°C° 1.6 mm 1 mps 678 mmHg 97%
Mostrar más

Necesitamos Su Consentimiento

Meteoprog y nuestros Proveedores de Servicios pueden almacenar y acceder a sus datos personales como cookies, identificadores de dispositivo u otras tecnologías similares de su dispositivo y procesar dichos datos para personalizar contenido y anuncios, además de ofrecer funciones de redes sociales y analizar el tráfico.

  • Almacenar y/o acceder a información en su dispositivo

    Se puede almacenar o acceder a cookies, identificadores de dispositivo u otra información de su dispositivo para los fines anteriormente indicados.

  • Anuncios y contenido personalizados, medición de anuncios y contenido, percepciones del público, y desarrollo de productos

    Los anuncios y el contenido pueden personalizarse en base a su perfil. Se pueden añadir más datos para personalizar mejor los anuncios y contenidos. Se puede medir el rendimiento de los anuncios y contenidos. Se puede obtener la percepción sobre el público que ha visto los anuncios y contenidos. Dichos datos pueden usarse para desarrollar o mejorar la experiencia del usuario, sistemas y software.

Al hacer clic en ‘Estoy De Acuerdo’ usted permitirá el uso de las cookies, identificadores de dispositivo, balizas web u otras tecnologías similares indicadas. Su configuración puede cambiarse desde el navegador de su dispositivo.

Para ciertos fines, los intereses legítimos pueden ser considerados por encima del consentimiento. Puede leer más sobre ello en nuestra Política de Privacidad y Cookies.